Wind_Speed
70 73 74 76 78 79 80 80 80 77 73 68 63 59 55 51 49 49 50 53 57 64 75 84 86 85 83 81 79 78 77 75 74 73 72 71 70 68 66 64 64 63 62
73 74 76 78 79 80 79 77 73 67 62 58 54 50 45 43 43 44 45 45 47 50 57 69 82 89 88 86 84 82 80 78 77 76 75 74 73 71 70 68 66 65 65
76 77 78 79 79 78 74 69 63 58 55 52 49 46 45 45 45 44 44 45 45 45 46 53 64 80 90 91 89 87 85 83 80 79 78 76 75 75 73 71 70 68 67
77 78 79 79 77 74 67 61 56 54 52 51 49 47 46 45 45 44 44 44 44 44 44 44 49 60 77 90 93 92 90 87 84 82 81 79 78 77 76 75 73 72 71
77 78 78 76 74 68 61 56 54 53 52 52 51 50 50 49 48 47 46 44 43 43 42 41 41 45 56 72 87 93 93 92 89 86 84 83 82 80 79 78 76 75 73
78 78 76 73 68 62 57 54 54 54 55 54 54 54 54 54 52 51 49 46 44 42 41 39 38 37 41 51 65 80 89 93 92 90 88 86 85 83 82 81 79 78 76
78 75 72 68 63 59 56 55 56 58 58 58 58 58 57 57 56 55 53 50 46 43 40 38 36 35 34 38 46 58 71 82 89 91 90 89 88 87 85 84 82 81 80
75 72 68 64 60 58 58 59 60 61 61 60 59 58 58 57 56 56 54 52 49 45 41 37 35 34 33 33 36 43 52 63 74 83 87 88 89 89 88 87 86 84 83
72 68 65 62 60 60 61 62 62 61 59 57 55 54 53 53 52 52 52 51 50 47 44 39 36 34 33 33 33 36 41 48 56 66 74 80 84 87 89 89 89 88 87
69 65 63 62 63 64 64 62 59 56 53 51 51 50 50 49 49 48 48 47 46 46 45 42 39 36 34 33 33 33 36 40 44 51 58 65 71 77 83 86 88 88 88
66 64 64 65 65 64 61 57 54 52 51 50 50 50 49 49 49 49 47 46 44 43 43 42 41 39 37 36 34 34 35 37 39 42 47 53 59 65 71 77 83 86 88
65 65 65 66 64 60 56 53 51 51 51 51 51 51 51 50 50 49 47 46 44 42 40 40 41 41 40 38 37 36 36 37 38 39 41 44 49 54 60 66 72 78 82
65 65 65 64 60 56 53 52 51 51 52 53 53 53 53 52 50 49 46 44 41 40 39 38 39 41 42 41 40 39 38 38 37 38 38 40 43 47 51 55 61 67 72
65 65 64 60 55 53 52 51 52 53 54 55 54 54 52 51 50 47 45 42 39 36 35 35 36 38 42 43 42 41 40 39 39 38 38 38 40 42 45 48 52 57 61
64 63 60 56 53 52 51 52 54 55 56 55 53 52 52 51 50 47 44 40 37 34 31 31 32 35 39 42 43 42 41 40 39 38 37 37 37 38 39 42 45 48 51
63 60 56 53 52 52 52 54 55 56 56 54 52 52 52 52 51 48 44 41 37 33 30 28 28 31 35 39 42 42 41 40 39 38 37 36 35 35 35 37 40 44 47
61 57 53 52 52 52 54 55 56 57 56 53 52 52 53 53 53 51 47 43 38 33 30 27 26 28 31 36 40 41 41 41 40 39 38 37 35 34 36 38 40 42 44
58 54 51 51 52 53 55 56 58 58 56 53 52 53 53 53 54 54 52 48 41 35 30 26 25 25 28 32 37 39 40 41 41 40 39 39 38 36 37 39 41 43 44
55 52 51 51 51 53 55 57 59 58 55 53 53 54 54 55 55 56 56 53 44 36 30 26 24 24 26 30 34 38 39 41 42 42 42 42 41 40 40 41 43 45 45
52 51 51 51 51 53 56 58 59 58 55 54 54 55 56 57 57 59 59 55 47 37 30 25 23 22 24 27 32 36 38 41 43 44 45 45 44 43 43 42 42 43 44
51 50 51 51 51 53 56 59 59 58 56 54 55 56 57 58 60 62 61 56 47 36 28 24 21 20 22 25 29 33 37 40 43 45 46 47 47 46 45 44 42 42 42
50 50 50 51 52 54 57 58 59 58 57 55 55 57 59 60 63 64 63 58 46 32 24 21 18 18 19 22 26 30 34 39 42 45 47 48 48 48 47 46 44 43 43
48 49 49 50 52 54 57 58 58 58 57 56 56 57 59 62 65 67 65 58 44 29 20 16 15 16 17 19 22 27 32 36 40 44 46 47 48 48 49 49 47 46 45
47 48 48 49 51 54 56 57 58 59 58 56 56 57 59 62 65 69 68 61 45 29 18 12 12 13 14 16 18 22 28 33 38 42 44 45 47 48 49 49 49 49 48
46 47 47 48 50 53 55 57 58 59 58 56 56 58 60 61 65 69 71 64 50 34 21 12 8 9 11 12 14 17 21 28 34 39 42 44 45 47 48 49 49 50 50
45 46 46 47 49 52 54 56 58 59 58 56 57 58 60 61 63 67 70 68 58 42 28 17 10 7 8 10 11 13 15 20 27 34 39 42 44 46 47 48 49 49 50
Wind_Direction
315 314 314 313 313 312 309 306 303 302 302 303 303 302 301 300 298 296 292 286 278 268 259 252 250 248 247 245 244 243 242 241 240 240 240 239 239 238 237 236 235 233 232
317 318 317 316 315 313 309 306 305 306 307 307 306 305 303 301 299 299 298 295 289 280 269 259 250 246 245 243 242 241 241 240 239 238 238 238 238 238 237 236 235 234 233
320 320 319 318 316 312 309 307 308 309 309 308 306 305 304 302 300 300 299 299 298 295 287 272 258 248 243 241 241 240 239 238 238 238 237 236 236 237 236 236 235 235 234
323 322 322 320 316 313 310 310 310 310 310 308 305 303 302 300 299 298 298 298 298 297 295 289 274 258 246 240 238 238 238 238 237 237 237 236 235 235 235 235 235 235 235
325 324 323 320 317 314 313 312 311 311 310 308 305 302 301 300 299 298 298 298 297 296 296 293 288 273 256 245 239 237 237 237 236 236 236 236 236 235 235 234 234 235 235
327 326 324 321 319 317 315 314 313 312 310 308 305 302 300 298 297 296 295 295 295 293 292 292 290 283 270 255 244 239 236 236 236 236 236 236 236 236 235 235 233 233 234
329 327 324 322 321 320 318 316 314 312 311 308 306 303 300 298 295 293 291 290 289 289 287 286 285 281 274 263 252 244 239 237 236 236 236 236 237 237 237 236 235 234 233
329 327 326 325 324 322 320 318 316 314 312 310 308 306 303 301 298 295 292 288 285 283 281 279 277 275 271 264 255 247 241 239 238 237 237 237 237 238 239 239 238 237 236
330 328 327 327 325 323 321 320 319 318 317 316 315 314 312 309 306 301 297 291 286 281 276 273 269 266 264 261 256 248 241 237 237 238 239 239 239 239 240 240 240 240 239
331 330 329 328 326 325 324 325 325 326 326 325 324 322 320 317 314 310 305 298 291 282 275 268 264 261 257 255 253 248 242 236 234 234 236 238 239 240 241 241 242 243 243
332 331 330 329 328 328 329 331 331 331 330 328 327 325 322 320 318 314 310 305 298 289 278 268 261 256 253 250 248 246 242 239 236 234 234 236 238 239 241 242 243 243 244
333 332 331 331 331 333 334 335 335 334 333 331 329 327 324 322 319 316 312 308 302 295 285 272 261 254 250 246 244 243 242 240 238 237 236 236 237 239 240 241 242 243 243
334 332 332 333 335 337 337 337 337 336 334 333 331 329 326 324 322 319 314 310 304 297 288 278 266 256 249 244 241 240 240 240 240 240 240 240 240 240 239 240 240 240 239
334 334 334 337 339 339 339 339 338 337 336 335 334 333 332 330 328 324 320 315 309 301 291 281 270 259 250 244 239 237 237 238 239 241 242 243 243 241 241 241 239 236 235
335 335 337 340 341 341 341 340 339 338 338 337 338 338 339 338 336 332 327 322 315 308 297 284 272 261 252 245 239 235 234 235 236 238 240 241 242 241 241 238 233 230 227
337 338 341 343 343 342 342 342 341 340 340 340 341 342 343 344 343 340 334 328 321 313 303 291 276 262 253 246 240 234 232 231 232 233 235 236 237 237 235 228 223 221 218
339 342 344 345 344 344 344 344 343 343 343 343 343 344 344 345 346 345 341 334 325 317 308 297 282 265 254 246 240 233 229 227 227 228 229 228 228 228 224 219 214 215 214
342 345 346 346 346 345 346 346 345 345 345 344 345 345 345 344 344 345 344 339 330 319 310 300 286 270 255 246 240 233 226 224 223 223 222 222 222 220 217 213 212 211 211
345 348 349 348 348 348 348 348 347 348 347 347 346 346 346 345 344 343 342 340 333 321 309 299 287 273 258 247 239 232 225 221 219 219 218 218 217 217 215 213 212 211 211
348 350 350 350 350 351 351 350 350 350 350 349 349 349 348 347 346 344 342 339 333 322 309 296 285 272 259 248 239 232 224 220 218 218 217 216 216 216 216 215 215 216 216
351 351 351 352 353 353 353 353 353 353 352 352 352 351 351 350 349 347 344 340 334 324 308 294 281 268 257 248 240 233 225 220 219 218 217 216 216 217 216 217 217 217 217
353 353 353 353 354 355 356 356 356 356 356 355 354 354 354 353 352 351 349 345 339 328 310 293 278 265 254 247 240 234 227 221 220 220 218 217 217 217 217 218 218 217 217
354 355 355 355 356 357 358 358 359 359 359 358 358 358 357 357 356 356 355 353 348 338 319 295 277 264 254 247 241 235 229 223 221 221 219 218 218 218 219 219 219 219 218
356 357 357 357 358 358 359 1 2 2 2 1 1 1 1 0 0 1 2 1 358 353 339 309 281 267 257 249 244 238 232 227 223 221 221 220 219 219 219 220 220 220 220
357 358 359 359 360 0 2 4 5 5 4 4 4 5 5 4 5 6 8 8 8 6 360 342 304 275 264 256 249 244 237 231 227 223 222 221 221 220 220 221 221 221 222
359 360 0 1 2 2 4 6 8 7 7 8 9 9 9 9 10 11 13 14 15 15 12 6 348 309 281 267 258 252 245 238 232 227 224 222 222 222 221 221 222 222 223
Height
5769 5757 5745 5732 5719 5706 5692 5678 5665 5652 5642 5633 5625 5618 5610 5602 5595 5589 5583 5579 5577 5577 5579 5583 5589 5595 5602 5609 5615 5622 5628 5635 5641 5648 5655 5662 5668 5674 5680 5686 5692 5698 5705
5755 5743 5730 5716 5702 5688 5673 5658 5645 5635 5626 5617 5610 5603 5597 5590 5584 5577 5571 5564 5560 5555 5553 5553 5559 5565 5573 5582 5590 5597 5605 5613 5620 5627 5635 5643 5651 5658 5664 5670 5677 5684 5690
5742 5728 5714 5700 5685 5669 5654 5641 5631 5622 5613 5605 5598 5591 5584 5578 5571 5565 5558 5551 5544 5539 5534 5531 5530 5534 5543 5553 5562 5571 5580 5590 5598 5605 5614 5623 5632 5639 5646 5654 5661 5668 5674
5727 5713 5698 5683 5667 5651 5637 5627 5618 5609 5601 5593 5586 5579 5572 5566 5559 5552 5546 5539 5531 5525 5519 5513 5509 5508 5513 5522 5533 5543 5554 5565 5576 5584 5592 5601 5610 5618 5628 5636 5644 5651 5658
5712 5698 5682 5666 5649 5635 5624 5615 5606 5598 5589 5581 5573 5566 5559 5552 5545 5538 5532 5526 5519 5512 5505 5500 5494 5491 5490 5495 5504 5515 5527 5539 5551 5562 5571 5580 5589 5599 5608 5617 5626 5634 5642
5699 5683 5666 5650 5635 5623 5613 5604 5595 5586 5577 5568 5559 5551 5544 5536 5529 5523 5517 5511 5506 5500 5493 5488 5482 5478 5476 5476 5481 5490 5501 5513 5525 5538 5548 5558 5568 5578 5587 5597 5607 5615 5624
5685 5668 5652 5637 5624 5613 5603 5593 5583 5573 5563 5553 5544 5535 5527 5519 5512 5505 5500 5495 5491 5486 5481 5476 5472 5468 5465 5464 5466 5471 5480 5490 5501 5513 5525 5536 5547 5556 5565 5575 5586 5595 5605
5670 5654 5639 5625 5614 5603 5592 5581 5570 5559 5548 5537 5527 5518 5509 5501 5493 5486 5481 5476 5473 5470 5467 5464 5461 5458 5456 5455 5456 5459 5464 5471 5480 5491 5502 5514 5525 5534 5544 5555 5565 5574 5584
5658 5642 5628 5615 5604 5592 5580 5568 5556 5544 5533 5522 5512 5502 5493 5484 5476 5469 5463 5458 5454 5452 5451 5450 5449 5447 5446 5446 5446 5448 5451 5457 5464 5472 5482 5492 5503 5513 5523 5533 5543 5553 5563
5647 5632 5618 5606 5593 5580 5567 5555 5543 5531 5521 5510 5500 5490 5481 5471 5463 5455 5448 5442 5437 5434 5433 5433 5434 5434 5434 5435 5436 5438 5441 5445 5450 5457 5465 5473 5483 5492 5501 5511 5521 5531 5542
5637 5622 5608 5595 5582 5569 5556 5544 5533 5522 5512 5502 5491 5481 5471 5461 5451 5442 5434 5427 5422 5418 5416 5416 5417 5419 5421 5423 5425 5427 5431 5435 5439 5444 5450 5457 5465 5473 5481 5490 5500 5510 5521
5628 5614 5600 5586 5572 5560 5548 5536 5526 5515 5504 5493 5482 5471 5461 5450 5440 5430 5421 5414 5407 5403 5399 5399 5400 5402 5405 5409 5412 5415 5419 5423 5428 5432 5437 5443 5449 5456 5463 5470 5479 5489 5500
5621 5606 5592 5578 5565 5553 5541 5530 5519 5508 5496 5485 5473 5461 5450 5439 5428 5418 5409 5401 5394 5389 5385 5383 5384 5386 5389 5393 5398 5403 5407 5411 5416 5420 5425 5430 5435 5441 5447 5454 5461 5470 5480
5613 5599 5585 5571 5558 5547 5535 5524 5512 5501 5489 5476 5464 5452 5439 5428 5416 5406 5396 5388 5381 5376 5372 5369 5369 5370 5373 5378 5384 5389 5394 5399 5404 5408 5413 5417 5422 5427 5433 5439 5445 5453 5463
5607 5593 5579 5565 5553 5542 5530 5518 5506 5493 5481 5468 5456 5443 5431 5418 5406 5395 5386 5377 5370 5364 5360 5357 5355 5356 5358 5363 5369 5375 5381 5387 5392 5396 5401 5405 5410 5414 5419 5425 5432 5439 5448
5601 5586 5572 5560 5548 5537 5525 5513 5500 5487 5474 5461 5448 5436 5424 5411 5399 5387 5377 5368 5360 5354 5349 5345 5343 5343 5345 5348 5354 5361 5368 5374 5380 5385 5390 5395 5399 5404 5409 5414 5421 5428 5437
5594 5580 5568 5556 5544 5532 5519 5507 5494 5480 5466 5454 5442 5430 5417 5405 5393 5381 5370 5359 5351 5344 5339 5335 5332 5332 5332 5335 5340 5347 5355 5361 5368 5374 5379 5384 5389 5394 5399 5405 5412 5420 5427
5589 5576 5564 5552 5539 5527 5514 5501 5487 5474 5460 5447 5435 5424 5412 5399 5387 5375 5363 5352 5341 5334 5329 5325 5322 5321 5321 5323 5327 5334 5342 5349 5356 5362 5368 5374 5379 5385 5391 5397 5404 5411 5418
5584 5572 5560 5548 5536 5523 5510 5497 5482 5469 5455 5442 5430 5418 5406 5393 5380 5367 5355 5343 5332 5323 5318 5314 5311 5310 5310 5312 5315 5321 5330 5337 5344 5350 5357 5363 5369 5376 5382 5388 5395 5402 5409
5580 5568 5556 5544 5532 5520 5507 5493 5478 5464 5451 5438 5425 5412 5399 5386 5372 5358 5344 5331 5320 5311 5305 5302 5300 5299 5299 5301 5304 5309 5318 5325 5332 5338 5345 5352 5359 5366 5372 5379 5386 5393 5400
5576 5564 5553 5541 5530 5517 5504 5490 5475 5461 5447 5434 5421 5408 5394 5380 5365 5350 5333 5318 5306 5297 5291 5289 5289 5289 5289 5290 5293 5298 5305 5312 5319 5326 5333 5341 5349 5356 5363 5370 5377 5384 5392
5573 5562 5550 5539 5527 5515 5502 5488 5473 5459 5444 5431 5418 5404 5389 5374 5359 5342 5324 5307 5292 5283 5278 5277 5277 5278 5280 5281 5284 5288 5294 5301 5307 5314 5321 5330 5338 5346 5354 5361 5368 5375 5383
5572 5560 5549 5537 5525 5513 5501 5487 5473 5458 5444 5430 5416 5402 5387 5371 5355 5337 5317 5298 5283 5273 5268 5267 5268 5269 5271 5273 5276 5279 5284 5290 5296 5303 5311 5319 5327 5335 5343 5351 5358 5366 5374
5570 5559 5548 5537 5525 5513 5500 5486 5472 5458 5444 5430 5416 5402 5387 5371 5353 5334 5314 5294 5278 5268 5263 5261 5262 5263 5265 5267 5269 5272 5276 5281 5287 5294 5301 5309 5317 5325 5333 5340 5348 5356 5364
5569 5558 5547 5536 5525 5513 5500 5487 5473 5459 5445 5431 5417 5403 5388 5372 5354 5334 5314 5294 5278 5267 5262 5259 5259 5260 5261 5263 5265 5267 5270 5274 5279 5285 5292 5300 5307 5315 5322 5330 5338 5346 5354
5568 5558 5547 5536 5525 5513 5501 5487 5474 5461 5448 5434 5419 5405 5390 5374 5357 5339 5320 5300 5284 5271 5264 5260 5259 5259 5260 5261 5262 5264 5266 5269 5272 5278 5283 5290 5298 5305 5313 5320 5328 5335 5343